UAE5QL OMDB-FSIA

Flight info

Callsign UAE5QL
Flight time 3h 42m
Altitude 38000
Route ANVIX R401 GIDIS G783 UKRAG L710 DEDSO R401 SUHIL UM314 IMTIP DCT EPNOR T144 ROUTY
Aircraft B77W/H-SDE1E2E3FGHIJ2J3J4J5M1RWXY/LB1D1

Departure

Time 2026-04-19 23:35
Airport Dubai International Airport (OMDB)

Arrival

Time 2026-04-20 03:17
Airport Seychelles International Airport (FSIA)
Time Latitude Longitude Altitude Speed Heading
2026-04-19 23:15 25.24570 55.36963 76 ft 0 kts 167°
2026-04-19 23:24 25.24579 55.36961 76 ft 2 kts 167°
2026-04-19 23:25 25.24594 55.36957 76 ft 2 kts 167°
2026-04-19 23:25 25.24608 55.36953 76 ft 2 kts 167°
2026-04-19 23:25 25.24623 55.36950 76 ft 2 kts 167°
2026-04-19 23:25 25.24638 55.36946 76 ft 2 kts 167°
2026-04-19 23:26 25.24648 55.36943 76 ft 0 kts 167°
2026-04-19 23:26 25.24661 55.36939 76 ft 2 kts 143°
2026-04-19 23:26 25.24671 55.36927 76 ft 2 kts 113°
2026-04-19 23:26 25.24674 55.36911 76 ft 2 kts 86°
2026-04-19 23:27 25.24671 55.36895 76 ft 2 kts 60°
2026-04-19 23:27 25.24662 55.36883 76 ft 1 kts 34°
2026-04-19 23:27 25.24657 55.36880 76 ft 0 kts 31°
2026-04-19 23:29 25.24665 55.36885 76 ft 4 kts 31°
2026-04-19 23:29 25.24709 55.36914 76 ft 7 kts 31°
2026-04-19 23:29 25.24760 55.36948 76 ft 10 kts 31°
2026-04-19 23:29 25.24834 55.36997 76 ft 14 kts 30°
2026-04-19 23:30 25.24934 55.37062 76 ft 18 kts 31°
2026-04-19 23:30 25.25042 55.37136 76 ft 13 kts 39°
2026-04-19 23:30 25.25053 55.37206 76 ft 8 kts 115°
2026-04-19 23:30 25.25021 55.37273 76 ft 14 kts 121°
2026-04-19 23:31 25.24965 55.37375 76 ft 14 kts 121°
2026-04-19 23:31 25.24909 55.37475 76 ft 18 kts 121°
2026-04-19 23:31 25.24831 55.37616 76 ft 23 kts 121°
2026-04-19 23:31 25.24755 55.37751 76 ft 16 kts 121°
2026-04-19 23:32 25.24705 55.37841 76 ft 10 kts 121°
2026-04-19 23:32 25.24665 55.37915 76 ft 15 kts 121°
2026-04-19 23:32 25.24607 55.38020 76 ft 13 kts 121°
2026-04-19 23:32 25.24565 55.38095 76 ft 12 kts 121°
2026-04-19 23:33 25.24518 55.38180 76 ft 13 kts 116°
2026-04-19 23:33 25.24546 55.38274 76 ft 15 kts 34°
2026-04-19 23:33 25.24621 55.38316 76 ft 9 kts 355°
2026-04-19 23:33 25.24661 55.38283 76 ft 5 kts 307°
2026-04-19 23:34 25.24682 55.38248 76 ft 5 kts 302°
2026-04-19 23:34 25.24794 55.38049 76 ft 66 kts 301°
2026-04-19 23:34 25.25168 55.37375 76 ft 137 kts 301°
2026-04-19 23:34 25.25769 55.36277 195 ft 188 kts 302°
2026-04-19 23:35 25.26467 55.35049 1029 ft 190 kts 302°
2026-04-19 23:35 25.27117 55.33875 1985 ft 180 kts 302°
2026-04-19 23:35 25.27792 55.32657 2523 ft 191 kts 302°
2026-04-19 23:35 25.28476 55.31419 3212 ft 193 kts 303°
2026-04-19 23:36 25.29050 55.30014 3687 ft 211 kts 284°
2026-04-19 23:36 25.29066 55.28338 4144 ft 233 kts 259°
2026-04-19 23:36 25.28428 55.26610 4680 ft 252 kts 245°
2026-04-19 23:36 25.27629 55.24867 5440 ft 260 kts 247°
2026-04-19 23:37 25.26840 55.23063 6257 ft 264 kts 248°
2026-04-19 23:37 25.26063 55.21247 7075 ft 266 kts 248°
2026-04-19 23:37 25.25271 55.19389 7878 ft 270 kts 246°
2026-04-19 23:37 25.24106 55.17750 8569 ft 281 kts 218°
2026-04-19 23:38 25.22355 55.16837 9334 ft 286 kts 191°
2026-04-19 23:38 25.20334 55.16757 10039 ft 292 kts 175°
2026-04-19 23:38 25.18313 55.17033 10853 ft 292 kts 166°
2026-04-19 23:38 25.16324 55.17625 11357 ft 306 kts 163°
2026-04-19 23:39 25.14218 55.18312 11792 ft 324 kts 163°
2026-04-19 23:39 25.11988 55.19024 12243 ft 341 kts 163°
2026-04-19 23:39 25.09649 55.19755 12691 ft 357 kts 164°
2026-04-19 23:39 25.07200 55.20515 13208 ft 372 kts 164°
2026-04-19 23:40 25.04655 55.21304 13665 ft 388 kts 164°
2026-04-19 23:40 25.02021 55.22120 14150 ft 402 kts 164°
2026-04-19 23:40 24.99274 55.22971 14698 ft 413 kts 164°
2026-04-19 23:40 24.96519 55.23824 15436 ft 418 kts 165°
2026-04-19 23:41 24.93691 55.24700 16165 ft 424 kts 165°
2026-04-19 23:41 24.90822 55.25588 16935 ft 427 kts 165°
2026-04-19 23:41 24.87970 55.26469 17665 ft 431 kts 165°
2026-04-19 23:41 24.85025 55.27379 18375 ft 436 kts 165°
2026-04-19 23:42 24.82106 55.28281 19064 ft 440 kts 165°
2026-04-19 23:42 24.79132 55.29200 19752 ft 445 kts 165°
2026-04-19 23:42 24.76138 55.30124 20476 ft 448 kts 165°
2026-04-19 23:42 24.73158 55.31044 21162 ft 451 kts 165°
2026-04-19 23:43 24.70106 55.31985 21815 ft 456 kts 165°
2026-04-19 23:43 24.67062 55.32922 22450 ft 459 kts 166°
2026-04-19 23:43 24.63946 55.33882 23093 ft 463 kts 165°
2026-04-19 23:43 24.60794 55.34852 23684 ft 468 kts 166°
2026-04-19 23:44 24.57656 55.35817 24283 ft 473 kts 166°
2026-04-19 23:44 24.54470 55.36797 24872 ft 477 kts 166°
2026-04-19 23:44 24.51264 55.37782 25425 ft 482 kts 165°
2026-04-19 23:44 24.48016 55.38780 26072 ft 485 kts 165°
2026-04-19 23:45 24.44772 55.39777 26662 ft 489 kts 165°
2026-04-19 23:45 24.41467 55.40791 27176 ft 494 kts 165°
2026-04-19 23:45 24.38143 55.41810 27728 ft 498 kts 165°
2026-04-19 23:45 24.34799 55.42835 28366 ft 500 kts 165°
2026-04-19 23:46 24.31441 55.43864 28896 ft 504 kts 165°
2026-04-19 23:46 24.28051 55.44902 29440 ft 507 kts 165°
2026-04-19 23:46 24.24610 55.45956 30084 ft 508 kts 165°
2026-04-19 23:46 24.21228 55.46990 30781 ft 507 kts 165°
2026-04-19 23:47 24.17764 55.48049 31443 ft 506 kts 165°
2026-04-19 23:47 24.14369 55.49087 32060 ft 506 kts 165°
2026-04-19 23:47 24.10959 55.50128 32563 ft 507 kts 165°
2026-04-19 23:47 24.07554 55.51167 32926 ft 510 kts 165°
2026-04-19 23:48 24.04080 55.51949 33372 ft 510 kts 174°
2026-04-19 23:48 24.00584 55.52164 33797 ft 509 kts 183°
2026-04-19 23:48 23.93579 55.50986 33876 ft 506 kts 197°
2026-04-19 23:49 23.86788 55.48969 33868 ft 505 kts 198°
2026-04-19 23:49 23.80016 55.46948 33857 ft 503 kts 198°
2026-04-19 23:50 23.73240 55.44930 33860 ft 507 kts 198°
2026-04-19 23:50 23.66416 55.42903 33860 ft 506 kts 198°
2026-04-19 23:51 23.59626 55.40890 33852 ft 508 kts 198°
2026-04-19 23:51 23.52628 55.39455 33854 ft 512 kts 184°
2026-04-19 23:52 23.45564 55.40232 33850 ft 518 kts 167°
2026-04-19 23:52 23.38545 55.42270 33847 ft 519 kts 165°
2026-04-19 23:53 23.31590 55.44492 33849 ft 521 kts 164°
2026-04-19 23:53 23.24649 55.46700 33859 ft 520 kts 164°
2026-04-19 23:54 23.17719 55.48896 33850 ft 519 kts 164°
2026-04-19 23:54 23.10701 55.51111 33855 ft 523 kts 164°
2026-04-19 23:55 23.03745 55.53303 33845 ft 521 kts 164°
2026-04-19 23:55 22.96739 55.55467 33854 ft 522 kts 164°
2026-04-19 23:56 22.89757 55.57608 33857 ft 525 kts 164°
2026-04-19 23:56 22.82722 55.59764 33845 ft 523 kts 165°
2026-04-19 23:57 22.75726 55.61908 33841 ft 523 kts 165°
2026-04-19 23:57 22.68717 55.64053 33849 ft 523 kts 165°
2026-04-19 23:58 22.61697 55.66199 33831 ft 523 kts 165°
2026-04-19 23:58 22.54645 55.68357 33838 ft 527 kts 165°
2026-04-19 23:59 22.47597 55.70513 33827 ft 523 kts 165°
2026-04-19 23:59 22.40543 55.72669 33841 ft 530 kts 165°
2026-04-20 00:00 22.33470 55.74827 33835 ft 525 kts 165°
2026-04-20 00:00 22.26411 55.76899 33831 ft 530 kts 170°
2026-04-20 00:01 22.19122 55.77829 33837 ft 526 kts 176°
2026-04-20 00:02 22.08134 55.78914 33836 ft 527 kts 176°
2026-04-20 00:02 22.00851 55.79635 33837 ft 526 kts 176°
2026-04-20 00:03 21.93554 55.80357 33839 ft 529 kts 176°
2026-04-20 00:03 21.86218 55.81084 33825 ft 527 kts 177°
2026-04-20 00:04 21.78903 55.81808 33820 ft 529 kts 177°
2026-04-20 00:04 21.71536 55.82538 33824 ft 530 kts 177°
2026-04-20 00:05 21.64191 55.83261 33829 ft 529 kts 177°
2026-04-20 00:05 21.56832 55.83983 33827 ft 531 kts 176°
2026-04-20 00:06 21.49475 55.84705 33833 ft 531 kts 177°
2026-04-20 00:06 21.42092 55.85428 33833 ft 531 kts 177°
2026-04-20 00:07 21.34724 55.86150 33837 ft 533 kts 177°
2026-04-20 00:07 21.27339 55.86872 33837 ft 534 kts 177°
2026-04-20 00:08 21.19916 55.87596 33852 ft 534 kts 177°
2026-04-20 00:08 21.12502 55.88318 33836 ft 534 kts 178°
2026-04-20 00:09 21.05115 55.89037 33845 ft 536 kts 177°
2026-04-20 00:09 20.97636 55.89763 33840 ft 536 kts 178°
2026-04-20 00:10 20.90184 55.90487 33849 ft 537 kts 178°
2026-04-20 00:10 20.82789 55.91204 33831 ft 535 kts 178°
2026-04-20 00:11 20.75321 55.91928 33845 ft 538 kts 178°
2026-04-20 00:11 20.67843 55.92653 33837 ft 538 kts 178°
2026-04-20 00:12 20.60409 55.93372 33837 ft 536 kts 178°
2026-04-20 00:12 20.52931 55.94095 33844 ft 538 kts 178°
2026-04-20 00:13 20.45490 55.94814 33846 ft 536 kts 178°
2026-04-20 00:13 20.38031 55.95534 33840 ft 538 kts 178°
2026-04-20 00:14 20.30583 55.96252 33850 ft 538 kts 178°
2026-04-20 00:14 20.23059 55.96969 33857 ft 539 kts 178°
2026-04-20 00:15 20.15640 55.97676 33847 ft 535 kts 179°
2026-04-20 00:15 20.08191 55.98383 33853 ft 538 kts 178°
2026-04-20 00:16 20.00662 55.98667 33851 ft 538 kts 183°
2026-04-20 00:16 19.93208 55.98806 33857 ft 536 kts 182°
2026-04-20 00:17 19.85767 55.98965 33847 ft 534 kts 182°
2026-04-20 00:17 19.78287 55.99136 33850 ft 536 kts 182°
2026-04-20 00:18 19.70833 55.99314 33854 ft 535 kts 183°
2026-04-20 00:18 19.63398 55.99494 33850 ft 533 kts 182°
2026-04-20 00:19 19.55947 55.99676 33858 ft 536 kts 182°
2026-04-20 00:19 19.48465 55.99861 33858 ft 533 kts 182°
2026-04-20 00:20 19.41045 56.00045 33863 ft 535 kts 182°
2026-04-20 00:20 19.33610 56.00230 33866 ft 533 kts 182°
2026-04-20 00:21 19.26166 56.00415 33869 ft 533 kts 183°
2026-04-20 00:21 19.18745 56.00599 33874 ft 534 kts 183°
2026-04-20 00:22 19.11330 56.00784 33878 ft 533 kts 183°
2026-04-20 00:22 19.03873 56.00968 33877 ft 534 kts 183°
2026-04-20 00:23 18.96497 56.00793 33883 ft 524 kts 194°
2026-04-20 00:23 18.89381 55.99104 33872 ft 522 kts 200°
2026-04-20 00:24 18.82391 55.97243 33865 ft 519 kts 200°
2026-04-20 00:24 18.75333 55.95360 33870 ft 520 kts 200°
2026-04-20 00:25 18.68313 55.93489 33869 ft 522 kts 200°
2026-04-20 00:25 18.61295 55.91621 33863 ft 520 kts 200°
2026-04-20 00:26 18.54239 55.89743 33867 ft 521 kts 200°
2026-04-20 00:26 18.47221 55.87877 33868 ft 522 kts 200°
2026-04-20 00:27 18.40167 55.86004 33876 ft 521 kts 200°
2026-04-20 00:27 18.33084 55.84122 33876 ft 523 kts 200°
2026-04-20 00:28 18.26079 55.82267 33883 ft 519 kts 201°
2026-04-20 00:28 18.19017 55.80394 33888 ft 524 kts 201°
2026-04-20 00:29 18.11942 55.78521 33888 ft 523 kts 200°
2026-04-20 00:29 18.04888 55.76654 33886 ft 522 kts 200°
2026-04-20 00:30 17.97816 55.74898 33882 ft 526 kts 195°
2026-04-20 00:30 17.90476 55.73906 33876 ft 530 kts 193°
2026-04-20 00:31 17.83174 55.72978 33856 ft 531 kts 193°
2026-04-20 00:31 17.75804 55.72038 33843 ft 531 kts 192°
2026-04-20 00:32 17.68461 55.71101 33840 ft 532 kts 193°
2026-04-20 00:32 17.61145 55.70169 33840 ft 528 kts 192°
2026-04-20 00:33 17.53804 55.69230 33843 ft 532 kts 193°
2026-04-20 00:33 17.46446 55.68291 33841 ft 529 kts 193°
2026-04-20 00:34 17.39124 55.67356 33844 ft 530 kts 192°
2026-04-20 00:34 17.31803 55.66423 33849 ft 531 kts 193°
2026-04-20 00:35 17.24464 55.65488 33847 ft 529 kts 192°
2026-04-20 00:35 17.17147 55.64556 33849 ft 530 kts 193°
2026-04-20 00:36 17.09791 55.63620 33846 ft 531 kts 193°
2026-04-20 00:36 17.02444 55.62687 33849 ft 529 kts 192°
2026-04-20 00:37 16.95119 55.61757 33853 ft 530 kts 192°
2026-04-20 00:37 16.87788 55.60827 33840 ft 531 kts 192°
2026-04-20 00:38 16.80453 55.59907 33841 ft 529 kts 192°
2026-04-20 00:38 16.73134 55.58992 33843 ft 529 kts 192°
2026-04-20 00:39 16.65831 55.58080 33846 ft 528 kts 192°
2026-04-20 00:39 16.58507 55.57165 33848 ft 528 kts 192°
2026-04-20 00:40 16.51218 55.56255 33852 ft 530 kts 192°
2026-04-20 00:40 16.43872 55.55339 33853 ft 527 kts 192°
2026-04-20 00:41 16.36606 55.54431 33857 ft 529 kts 192°
2026-04-20 00:41 16.29289 55.53521 33863 ft 526 kts 192°
2026-04-20 00:42 16.22003 55.52614 33859 ft 527 kts 192°
2026-04-20 00:42 16.14715 55.51709 33862 ft 525 kts 192°
2026-04-20 00:43 16.07416 55.50800 33867 ft 528 kts 192°
2026-04-20 00:43 16.00151 55.49899 33869 ft 524 kts 192°
2026-04-20 00:44 15.92884 55.48997 33871 ft 526 kts 192°
2026-04-20 00:44 15.85584 55.48092 33858 ft 525 kts 192°
2026-04-20 00:45 15.78329 55.47192 33857 ft 525 kts 192°
2026-04-20 00:45 15.71026 55.46288 33859 ft 526 kts 192°
2026-04-20 00:46 15.63741 55.45387 33860 ft 525 kts 192°
2026-04-20 00:46 15.56466 55.44487 33861 ft 526 kts 192°
2026-04-20 00:47 15.49216 55.43591 33863 ft 526 kts 192°
2026-04-20 00:47 15.41937 55.42692 33863 ft 525 kts 192°
2026-04-20 00:48 15.34669 55.41796 33864 ft 524 kts 192°
2026-04-20 00:48 15.27425 55.40902 33865 ft 525 kts 192°
2026-04-20 00:49 15.20131 55.40004 33867 ft 525 kts 192°
2026-04-20 00:49 15.12880 55.39101 33868 ft 525 kts 192°
2026-04-20 00:50 15.05618 55.38191 33869 ft 525 kts 192°
2026-04-20 00:50 14.98369 55.37283 33869 ft 524 kts 192°
2026-04-20 00:51 14.91114 55.36375 33870 ft 523 kts 192°
2026-04-20 00:51 14.83841 55.35465 33858 ft 524 kts 192°
2026-04-20 00:52 14.76619 55.34563 33870 ft 523 kts 191°
2026-04-20 00:52 14.69355 55.33655 33869 ft 525 kts 191°
2026-04-20 00:53 14.62104 55.32751 33871 ft 524 kts 191°
2026-04-20 00:53 14.54857 55.31848 33872 ft 523 kts 191°
2026-04-20 00:54 14.47597 55.30943 33873 ft 524 kts 191°
2026-04-20 00:54 14.40365 55.30043 33875 ft 524 kts 191°
2026-04-20 00:55 14.33095 55.29139 33875 ft 523 kts 191°
2026-04-20 00:55 14.25842 55.28236 33876 ft 525 kts 191°
2026-04-20 00:56 14.18595 55.27336 33878 ft 523 kts 191°
2026-04-20 00:56 14.11380 55.26440 33879 ft 524 kts 191°
2026-04-20 00:57 14.04137 55.25541 33883 ft 524 kts 191°
2026-04-20 00:57 13.96900 55.24644 33880 ft 523 kts 191°
2026-04-20 00:58 13.89620 55.23741 33881 ft 523 kts 191°
2026-04-20 00:58 13.82375 55.22829 33878 ft 523 kts 191°
2026-04-20 00:59 13.75157 55.21917 33875 ft 524 kts 191°
2026-04-20 00:59 13.67916 55.21005 33878 ft 521 kts 191°
2026-04-20 01:00 13.60691 55.20094 33878 ft 525 kts 191°
2026-04-20 01:00 13.53489 55.19188 33882 ft 520 kts 191°
2026-04-20 01:01 13.46223 55.18274 33882 ft 523 kts 191°
2026-04-20 01:01 13.39029 55.17370 33886 ft 522 kts 191°
2026-04-20 01:02 13.31783 55.16460 33888 ft 523 kts 191°
2026-04-20 01:02 13.24530 55.15550 33889 ft 522 kts 191°
2026-04-20 01:03 13.17310 55.14643 33891 ft 522 kts 191°
2026-04-20 01:03 13.10087 55.13737 33892 ft 522 kts 191°
2026-04-20 01:04 13.02855 55.12832 33895 ft 522 kts 191°
2026-04-20 01:04 12.95640 55.11928 33895 ft 522 kts 191°
2026-04-20 01:05 12.88442 55.11027 33889 ft 522 kts 190°
2026-04-20 01:05 12.81216 55.10123 33885 ft 522 kts 190°
2026-04-20 01:06 12.73968 55.09217 33887 ft 523 kts 190°
2026-04-20 01:06 12.66761 55.08317 33886 ft 520 kts 190°
2026-04-20 01:07 12.59512 55.07412 33887 ft 523 kts 190°
2026-04-20 01:07 12.52328 55.06515 33889 ft 521 kts 190°
2026-04-20 01:08 12.45139 55.05619 33890 ft 522 kts 190°
2026-04-20 01:08 12.37923 55.04719 33890 ft 521 kts 190°
2026-04-20 01:09 12.30685 55.03817 33893 ft 521 kts 190°
2026-04-20 01:09 12.23482 55.02920 33889 ft 520 kts 190°
2026-04-20 01:10 12.16316 55.02029 33894 ft 522 kts 190°
2026-04-20 01:10 12.05498 55.00684 33894 ft 520 kts 190°
2026-04-20 01:11 11.98291 55.00000 33896 ft 520 kts 183°
2026-04-20 01:11 11.91002 54.99985 33893 ft 523 kts 182°
2026-04-20 01:12 11.83695 54.99992 33885 ft 521 kts 182°
2026-04-20 01:12 11.76444 54.99995 33886 ft 521 kts 182°
2026-04-20 01:13 11.69179 54.99998 33887 ft 522 kts 182°
2026-04-20 01:13 11.61873 54.99999 33886 ft 521 kts 182°
2026-04-20 01:14 11.54634 54.99999 33887 ft 521 kts 182°
2026-04-20 01:14 11.47366 55.00000 33889 ft 520 kts 182°
2026-04-20 01:15 11.40150 55.00000 33890 ft 521 kts 182°
2026-04-20 01:15 11.32866 55.00000 33891 ft 519 kts 182°
2026-04-20 01:16 11.25662 54.99999 33893 ft 519 kts 182°
2026-04-20 01:16 11.18417 55.00000 33892 ft 518 kts 182°
2026-04-20 01:17 11.11189 55.00000 33894 ft 518 kts 182°
2026-04-20 01:17 11.03969 55.00000 33888 ft 518 kts 182°
2026-04-20 01:18 10.96730 55.00000 33896 ft 518 kts 182°
2026-04-20 01:18 10.89527 55.00000 33900 ft 517 kts 182°
2026-04-20 01:19 10.82321 55.00000 33873 ft 517 kts 182°
2026-04-20 01:19 10.75074 55.00000 33878 ft 518 kts 182°
2026-04-20 01:20 10.67854 55.00000 33872 ft 516 kts 182°
2026-04-20 01:20 10.60660 55.00000 33878 ft 517 kts 182°
2026-04-20 01:21 10.53454 55.00000 33867 ft 517 kts 182°
2026-04-20 01:21 10.46213 55.00000 33875 ft 517 kts 182°
2026-04-20 01:22 10.39023 55.00000 33867 ft 516 kts 182°
2026-04-20 01:22 10.31811 55.00000 33862 ft 518 kts 182°
2026-04-20 01:23 10.24613 55.00000 33861 ft 516 kts 182°
2026-04-20 01:23 10.17374 55.00000 33863 ft 517 kts 182°
2026-04-20 01:24 10.10194 55.00000 33860 ft 516 kts 182°
2026-04-20 01:24 10.02958 55.00000 33854 ft 516 kts 182°
2026-04-20 01:25 9.95753 55.00000 33852 ft 516 kts 182°
2026-04-20 01:25 9.88567 55.00000 33848 ft 516 kts 182°
2026-04-20 01:26 9.81348 55.00000 33844 ft 517 kts 181°
2026-04-20 01:26 9.74135 55.00000 33846 ft 516 kts 181°
2026-04-20 01:27 9.66925 55.00000 33849 ft 516 kts 181°
2026-04-20 01:27 9.59739 55.00000 33845 ft 515 kts 181°
2026-04-20 01:28 9.52505 55.00000 33849 ft 517 kts 181°
2026-04-20 01:28 9.45329 55.00000 33846 ft 516 kts 181°
2026-04-20 01:29 9.38140 55.00000 33846 ft 515 kts 181°
2026-04-20 01:29 9.30947 55.00000 33850 ft 515 kts 181°
2026-04-20 01:30 9.23743 55.00000 33852 ft 515 kts 181°
2026-04-20 01:30 9.16579 55.00000 33849 ft 514 kts 181°
2026-04-20 01:31 9.09398 55.00000 33850 ft 514 kts 181°
2026-04-20 01:31 9.02252 55.00000 33852 ft 514 kts 181°
2026-04-20 01:32 8.95070 55.00000 33854 ft 514 kts 181°
2026-04-20 01:32 8.87892 55.00000 33843 ft 514 kts 181°
2026-04-20 01:33 8.80730 55.00000 33847 ft 514 kts 181°
2026-04-20 01:33 8.73564 55.00000 33847 ft 514 kts 181°
2026-04-20 01:34 8.66426 55.00000 33848 ft 514 kts 181°
2026-04-20 01:34 8.59264 55.00000 33847 ft 515 kts 181°
2026-04-20 01:35 8.52061 55.00000 33852 ft 513 kts 181°
2026-04-20 01:35 8.44910 55.00000 33849 ft 513 kts 181°
2026-04-20 01:36 8.37759 55.00000 33851 ft 514 kts 181°
2026-04-20 01:36 8.30572 55.00000 33848 ft 513 kts 180°
2026-04-20 01:37 8.23419 55.00000 33852 ft 513 kts 180°
2026-04-20 01:37 8.16255 55.00000 33852 ft 512 kts 180°
2026-04-20 01:38 8.09144 55.00000 33850 ft 513 kts 180°
2026-04-20 01:38 8.01962 55.00000 33849 ft 512 kts 180°
2026-04-20 01:39 7.94834 55.00000 33852 ft 512 kts 180°
2026-04-20 01:39 7.87717 55.00000 33844 ft 512 kts 180°
2026-04-20 01:40 7.80526 55.00000 33841 ft 512 kts 180°
2026-04-20 01:40 7.73411 55.00000 33844 ft 511 kts 180°
2026-04-20 01:41 7.66247 55.00000 33846 ft 511 kts 180°
2026-04-20 01:41 7.59135 55.00000 33847 ft 513 kts 180°
2026-04-20 01:42 7.51999 55.00000 33848 ft 512 kts 180°
2026-04-20 01:42 7.44817 55.00000 33847 ft 511 kts 180°
2026-04-20 01:43 7.37706 55.00001 33849 ft 513 kts 180°
2026-04-20 01:43 7.30589 55.00000 33846 ft 511 kts 180°
2026-04-20 01:44 7.23425 55.00000 33851 ft 512 kts 180°
2026-04-20 01:44 7.16265 55.00000 33850 ft 511 kts 180°
2026-04-20 01:45 7.09170 55.00000 33851 ft 512 kts 180°
2026-04-20 01:45 7.02028 55.00000 33853 ft 511 kts 180°
2026-04-20 01:46 6.94858 55.00000 33852 ft 510 kts 180°
2026-04-20 01:46 6.87751 55.00000 33845 ft 511 kts 180°
2026-04-20 01:47 6.80625 55.00000 33845 ft 512 kts 180°
2026-04-20 01:47 6.73491 55.00000 33846 ft 510 kts 180°
2026-04-20 01:48 6.66406 55.00000 33845 ft 511 kts 180°
2026-04-20 01:48 6.59284 55.00000 33848 ft 511 kts 180°
2026-04-20 01:49 6.52153 55.00000 33846 ft 509 kts 180°
2026-04-20 01:49 6.45038 54.99999 33848 ft 510 kts 180°
2026-04-20 01:50 6.37955 55.00000 33848 ft 509 kts 180°
2026-04-20 01:50 6.30833 55.00000 33849 ft 509 kts 180°
2026-04-20 01:51 6.23714 55.00000 33851 ft 510 kts 180°
2026-04-20 01:51 6.16630 55.00000 33852 ft 508 kts 180°
2026-04-20 01:52 6.09547 55.00000 33852 ft 510 kts 180°
2026-04-20 01:52 6.02404 55.00000 33852 ft 508 kts 180°
2026-04-20 01:53 5.95321 54.99999 33851 ft 509 kts 180°
2026-04-20 01:53 5.88214 55.00000 33844 ft 507 kts 180°
2026-04-20 01:54 5.81125 55.00000 33850 ft 509 kts 180°
2026-04-20 01:54 5.74041 54.99999 33845 ft 508 kts 180°
2026-04-20 01:55 5.66982 54.99999 33842 ft 508 kts 180°
2026-04-20 01:55 5.59912 54.99999 33842 ft 508 kts 180°
2026-04-20 01:56 5.52793 55.00000 33847 ft 509 kts 180°
2026-04-20 01:56 5.45707 55.00000 33848 ft 507 kts 180°
2026-04-20 01:57 5.38636 55.00004 33841 ft 508 kts 178°
2026-04-20 01:57 5.31588 55.00496 33844 ft 509 kts 175°
2026-04-20 01:58 5.24487 55.01063 33845 ft 508 kts 175°
2026-04-20 01:58 5.17410 55.01608 33852 ft 508 kts 175°
2026-04-20 01:59 5.10377 55.02138 33849 ft 508 kts 175°
2026-04-20 01:59 5.03305 55.02664 33849 ft 508 kts 175°
2026-04-20 02:00 4.96249 55.03186 33852 ft 507 kts 175°
2026-04-20 02:00 4.89152 55.03708 33849 ft 507 kts 175°
2026-04-20 02:01 4.82104 55.04226 33845 ft 508 kts 175°
2026-04-20 02:01 4.75042 55.04744 33846 ft 506 kts 175°
2026-04-20 02:02 4.68005 55.05260 33847 ft 507 kts 175°
2026-04-20 02:02 4.60992 55.05774 33846 ft 506 kts 175°
2026-04-20 02:03 4.53924 55.06292 33847 ft 506 kts 175°
2026-04-20 02:03 4.46891 55.06805 33847 ft 505 kts 175°
2026-04-20 02:04 4.39834 55.07323 33848 ft 506 kts 175°
2026-04-20 02:04 4.32843 55.07835 33849 ft 504 kts 175°
2026-04-20 02:05 4.25841 55.08348 33850 ft 505 kts 175°
2026-04-20 02:05 4.18827 55.08861 33849 ft 504 kts 175°
2026-04-20 02:06 4.11769 55.09377 33850 ft 503 kts 175°
2026-04-20 02:06 4.04778 55.09889 33850 ft 505 kts 175°
2026-04-20 02:07 3.97768 55.10401 33851 ft 504 kts 175°
2026-04-20 02:07 3.90758 55.10915 33851 ft 503 kts 175°
2026-04-20 02:08 3.83784 55.11425 33845 ft 501 kts 175°
2026-04-20 02:08 3.76770 55.11937 33845 ft 502 kts 175°
2026-04-20 02:09 3.69839 55.12445 33846 ft 501 kts 175°
2026-04-20 02:09 3.62823 55.12958 33846 ft 501 kts 175°
2026-04-20 02:10 3.55879 55.13466 33847 ft 502 kts 175°
2026-04-20 02:10 3.48918 55.13975 33847 ft 500 kts 175°
2026-04-20 02:11 3.41904 55.14487 33848 ft 500 kts 175°
2026-04-20 02:11 3.34964 55.14995 33848 ft 501 kts 175°
2026-04-20 02:12 3.28033 55.15501 33849 ft 499 kts 175°
2026-04-20 02:12 3.21081 55.16009 33849 ft 500 kts 175°
2026-04-20 02:13 3.14113 55.16518 33849 ft 498 kts 175°
2026-04-20 02:13 3.07152 55.17027 33851 ft 500 kts 175°
2026-04-20 02:14 3.00224 55.17533 33850 ft 498 kts 175°
2026-04-20 02:14 2.93322 55.18037 33849 ft 498 kts 175°
2026-04-20 02:15 2.86380 55.18544 33847 ft 499 kts 175°
2026-04-20 02:15 2.79395 55.19054 33846 ft 499 kts 175°
2026-04-20 02:16 2.72471 55.19560 33845 ft 498 kts 175°
2026-04-20 02:16 2.65555 55.20065 33848 ft 498 kts 175°
2026-04-20 02:17 2.58605 55.20572 33844 ft 499 kts 175°
2026-04-20 02:17 2.51640 55.21080 33845 ft 499 kts 175°
2026-04-20 02:18 2.44690 55.21587 33846 ft 498 kts 175°
2026-04-20 02:18 2.37780 55.22092 33848 ft 500 kts 175°
2026-04-20 02:19 2.30823 55.22599 33845 ft 499 kts 175°
2026-04-20 02:19 2.23853 55.23107 33845 ft 499 kts 175°
2026-04-20 02:20 2.16945 55.23611 33847 ft 498 kts 175°
2026-04-20 02:20 2.10018 55.24117 33848 ft 499 kts 175°
2026-04-20 02:21 1.99589 55.24878 33850 ft 499 kts 175°
2026-04-20 02:22 1.92646 55.25383 33850 ft 498 kts 175°
2026-04-20 02:22 1.85713 55.25889 33846 ft 499 kts 175°
2026-04-20 02:23 1.78795 55.26393 33846 ft 498 kts 175°
2026-04-20 02:23 1.71837 55.26901 33846 ft 498 kts 175°
2026-04-20 02:24 1.64942 55.27404 33846 ft 499 kts 175°
2026-04-20 02:24 1.58000 55.27909 33848 ft 498 kts 175°
2026-04-20 02:25 1.51067 55.28415 33847 ft 498 kts 175°
2026-04-20 02:25 1.44116 55.28921 33848 ft 498 kts 175°
2026-04-20 02:26 1.37182 55.29427 33848 ft 498 kts 175°
2026-04-20 02:26 1.30245 55.29828 33851 ft 498 kts 178°
2026-04-20 02:27 1.23271 55.29977 33849 ft 499 kts 178°
2026-04-20 02:27 1.16327 55.30136 33849 ft 498 kts 178°
2026-04-20 02:28 1.09383 55.30302 33850 ft 499 kts 178°
2026-04-20 02:28 1.02451 55.30475 33850 ft 498 kts 178°
2026-04-20 02:29 0.95480 55.30651 33850 ft 498 kts 178°
2026-04-20 02:29 0.88545 55.30828 33848 ft 499 kts 178°
2026-04-20 02:30 0.81594 55.31006 33846 ft 498 kts 178°
2026-04-20 02:30 0.74650 55.31184 33848 ft 498 kts 178°
2026-04-20 02:31 0.67714 55.31362 33846 ft 498 kts 178°
2026-04-20 02:31 0.60766 55.31541 33848 ft 497 kts 178°
2026-04-20 02:32 0.53818 55.31720 33848 ft 497 kts 178°
2026-04-20 02:32 0.46860 55.31899 33847 ft 496 kts 178°
2026-04-20 02:33 0.39921 55.32077 33850 ft 496 kts 178°
2026-04-20 02:33 0.33020 55.32255 33847 ft 496 kts 178°
2026-04-20 02:34 0.26091 55.32433 33850 ft 497 kts 178°
2026-04-20 02:34 0.19159 55.32612 33847 ft 496 kts 178°
2026-04-20 02:35 0.12247 55.32789 33850 ft 496 kts 178°
2026-04-20 02:35 0.05345 55.32967 33850 ft 495 kts 178°
2026-04-20 02:36 -0.01577 55.33145 33851 ft 495 kts 178°
2026-04-20 02:36 -0.08481 55.33323 33850 ft 495 kts 178°
2026-04-20 02:37 -0.15372 55.33500 33846 ft 496 kts 178°
2026-04-20 02:37 -0.22292 55.33678 33849 ft 495 kts 178°
2026-04-20 02:38 -0.29217 55.33856 33848 ft 495 kts 178°
2026-04-20 02:38 -0.36095 55.34033 33849 ft 494 kts 178°
2026-04-20 02:39 -0.42984 55.34210 33847 ft 495 kts 178°
2026-04-20 02:39 -0.49876 55.34388 33847 ft 494 kts 178°
2026-04-20 02:40 -0.56795 55.34565 33851 ft 495 kts 178°
2026-04-20 02:40 -0.63663 55.34742 33852 ft 494 kts 178°
2026-04-20 02:41 -0.70566 55.34920 33849 ft 494 kts 178°
2026-04-20 02:41 -0.77467 55.35097 33850 ft 494 kts 178°
2026-04-20 02:42 -0.84321 55.35274 33849 ft 494 kts 178°
2026-04-20 02:42 -0.91215 55.35451 33851 ft 493 kts 178°
2026-04-20 02:43 -0.98114 55.35628 33850 ft 493 kts 178°
2026-04-20 02:43 -1.04975 55.35805 33849 ft 493 kts 178°
2026-04-20 02:44 -1.11866 55.35983 33846 ft 493 kts 178°
2026-04-20 02:44 -1.18742 55.36160 33847 ft 493 kts 179°
2026-04-20 02:45 -1.25620 55.36337 33846 ft 492 kts 178°
2026-04-20 02:45 -1.32490 55.36514 33847 ft 492 kts 179°
2026-04-20 02:46 -1.39324 55.36689 33847 ft 492 kts 179°
2026-04-20 02:46 -1.46206 55.36866 33848 ft 492 kts 179°
2026-04-20 02:47 -1.53068 55.37043 33848 ft 492 kts 179°
2026-04-20 02:47 -1.59921 55.37220 33848 ft 491 kts 179°
2026-04-20 02:48 -1.66750 55.37396 33847 ft 492 kts 179°
2026-04-20 02:48 -1.73615 55.37572 33848 ft 491 kts 179°
2026-04-20 02:49 -1.80473 55.37749 33850 ft 490 kts 179°
2026-04-20 02:49 -1.87332 55.37925 33846 ft 490 kts 179°
2026-04-20 02:50 -1.94167 55.38102 33850 ft 490 kts 179°
2026-04-20 02:50 -2.00991 55.38277 33849 ft 491 kts 179°
2026-04-20 02:51 -2.07835 55.38453 33849 ft 490 kts 179°
2026-04-20 02:51 -2.14646 55.38629 33843 ft 490 kts 179°
2026-04-20 02:52 -2.21484 55.38850 33840 ft 491 kts 178°
2026-04-20 02:52 -2.28311 55.39117 33842 ft 490 kts 178°
2026-04-20 02:53 -2.35197 55.39383 33842 ft 491 kts 178°
2026-04-20 02:53 -2.42015 55.39645 33836 ft 490 kts 178°
2026-04-20 02:54 -2.48844 55.39906 33840 ft 490 kts 178°
2026-04-20 02:54 -2.55678 55.40167 33839 ft 490 kts 178°
2026-04-20 02:55 -2.62526 55.40428 33834 ft 491 kts 178°
2026-04-20 02:55 -2.69341 55.40688 33835 ft 489 kts 178°
2026-04-20 02:55 -2.72753 55.40817 33595 ft 483 kts 178°
2026-04-20 02:56 -2.76116 55.40945 32580 ft 487 kts 178°
2026-04-20 02:56 -2.79513 55.41075 31679 ft 490 kts 178°
2026-04-20 02:56 -2.82931 55.41205 30849 ft 491 kts 178°
2026-04-20 02:56 -2.86323 55.41335 30234 ft 487 kts 178°
2026-04-20 02:57 -2.89688 55.41463 29775 ft 480 kts 178°
2026-04-20 02:57 -2.93043 55.41592 29265 ft 490 kts 178°
2026-04-20 02:57 -2.96488 55.41723 28702 ft 498 kts 178°
2026-04-20 02:57 -2.99966 55.41856 28129 ft 495 kts 178°
2026-04-20 02:58 -3.03389 55.41986 27582 ft 491 kts 178°
2026-04-20 02:58 -3.06827 55.42116 26999 ft 487 kts 178°
2026-04-20 02:58 -3.10176 55.42244 26436 ft 483 kts 178°
2026-04-20 02:58 -3.13555 55.42372 25848 ft 479 kts 177°
2026-04-20 02:59 -3.16920 55.42501 25263 ft 475 kts 177°
2026-04-20 02:59 -3.20231 55.42627 24687 ft 471 kts 177°
2026-04-20 02:59 -3.23513 55.42753 24108 ft 467 kts 177°
2026-04-20 02:59 -3.26778 55.42877 23530 ft 463 kts 177°
2026-04-20 03:00 -3.29979 55.42999 22962 ft 459 kts 177°
2026-04-20 03:00 -3.33138 55.43119 22394 ft 456 kts 177°
2026-04-20 03:00 -3.36328 55.43241 21831 ft 452 kts 177°
2026-04-20 03:00 -3.39446 55.43360 21262 ft 449 kts 177°
2026-04-20 03:01 -3.42544 55.43478 20688 ft 445 kts 177°
2026-04-20 03:01 -3.45663 55.43597 20110 ft 441 kts 177°
2026-04-20 03:01 -3.48721 55.43714 19535 ft 437 kts 177°
2026-04-20 03:01 -3.51728 55.43829 18970 ft 433 kts 177°
2026-04-20 03:02 -3.54716 55.43943 18403 ft 428 kts 177°
2026-04-20 03:02 -3.57682 55.44055 17834 ft 423 kts 177°
2026-04-20 03:02 -3.60624 55.44168 17273 ft 418 kts 177°
2026-04-20 03:02 -3.63510 55.44284 16729 ft 413 kts 177°
2026-04-20 03:03 -3.66399 55.44391 16174 ft 408 kts 176°
2026-04-20 03:03 -3.69217 55.44513 15623 ft 404 kts 176°
2026-04-20 03:03 -3.72013 55.44613 15072 ft 400 kts 176°
2026-04-20 03:03 -3.74778 55.44712 14530 ft 397 kts 176°
2026-04-20 03:04 -3.77536 55.44808 13985 ft 393 kts 176°
2026-04-20 03:04 -3.80265 55.44912 13443 ft 390 kts 176°
2026-04-20 03:04 -3.82991 55.45018 12897 ft 387 kts 176°
2026-04-20 03:04 -3.85675 55.45122 12357 ft 384 kts 176°
2026-04-20 03:05 -3.88341 55.45225 11823 ft 381 kts 176°
2026-04-20 03:05 -3.90991 55.45326 11288 ft 378 kts 176°
2026-04-20 03:05 -3.93605 55.45427 10761 ft 375 kts 176°
2026-04-20 03:05 -3.96210 55.45526 10458 ft 365 kts 176°
2026-04-20 03:06 -3.98713 55.45621 10372 ft 349 kts 176°
2026-04-20 03:06 -4.01099 55.45712 10261 ft 336 kts 176°
2026-04-20 03:06 -4.03404 55.45800 10127 ft 324 kts 176°
2026-04-20 03:06 -4.05618 55.45884 10017 ft 311 kts 176°
2026-04-20 03:07 -4.07748 55.45966 9945 ft 299 kts 176°
2026-04-20 03:07 -4.09804 55.46045 9671 ft 295 kts 176°
2026-04-20 03:07 -4.11865 55.46125 9270 ft 295 kts 176°
2026-04-20 03:07 -4.13931 55.46204 8879 ft 294 kts 176°
2026-04-20 03:08 -4.15967 55.46282 8511 ft 288 kts 176°
2026-04-20 03:08 -4.17953 55.46357 8168 ft 282 kts 177°
2026-04-20 03:08 -4.19903 55.46363 7845 ft 277 kts 179°
2026-04-20 03:08 -4.21854 55.46346 7501 ft 275 kts 179°
2026-04-20 03:09 -4.23766 55.46338 7163 ft 273 kts 179°
2026-04-20 03:09 -4.25647 55.46334 6835 ft 271 kts 179°
2026-04-20 03:09 -4.27537 55.46332 6508 ft 269 kts 179°
2026-04-20 03:09 -4.29415 55.46331 6182 ft 267 kts 179°
2026-04-20 03:10 -4.31265 55.46329 5863 ft 264 kts 179°
2026-04-20 03:10 -4.33111 55.46327 5546 ft 262 kts 178°
2026-04-20 03:10 -4.34928 55.46325 5233 ft 260 kts 179°
2026-04-20 03:10 -4.36732 55.46324 4925 ft 258 kts 179°
2026-04-20 03:11 -4.38538 55.46322 4655 ft 253 kts 178°
2026-04-20 03:11 -4.40264 55.46320 4573 ft 241 kts 178°
2026-04-20 03:11 -4.41899 55.46318 4499 ft 229 kts 178°
2026-04-20 03:11 -4.43476 55.46317 4388 ft 225 kts 178°
2026-04-20 03:12 -4.45073 55.46318 4134 ft 228 kts 178°
2026-04-20 03:12 -4.46658 55.46318 3880 ft 226 kts 178°
2026-04-20 03:12 -4.48240 55.46318 3640 ft 224 kts 178°
2026-04-20 03:12 -4.49787 55.46318 3410 ft 222 kts 178°
2026-04-20 03:13 -4.51324 55.46318 3186 ft 220 kts 178°
2026-04-20 03:13 -4.52363 55.46319 3042 ft 219 kts 178°
2026-04-20 03:13 -4.53859 55.46332 2988 ft 211 kts 178°
2026-04-20 03:13 -4.55322 55.46344 2983 ft 209 kts 178°
2026-04-20 03:14 -4.56788 55.46356 2930 ft 210 kts 178°
2026-04-20 03:14 -4.58802 55.46368 2257 ft 227 kts 178°
2026-04-20 03:14 -4.59849 55.46370 1913 ft 224 kts 178°
2026-04-20 03:14 -4.61360 55.46371 1544 ft 208 kts 178°
2026-04-20 03:15 -4.62744 55.46479 1269 ft 192 kts 165°
2026-04-20 03:15 -4.64134 55.47363 942 ft 170 kts 128°
2026-04-20 03:15 -4.64767 55.48334 735 ft 161 kts 122°
2026-04-20 03:15 -4.65180 55.48957 601 ft 159 kts 123°
2026-04-20 03:16 -4.65797 55.49847 397 ft 155 kts 124°
2026-04-20 03:16 -4.66624 55.51027 90 ft 152 kts 124°
2026-04-20 03:16 -4.67198 55.51847 26 ft 126 kts 124°
2026-04-20 03:16 -4.67612 55.52438 21 ft 53 kts 125°
2026-04-20 03:17 -4.67702 55.52568 21 ft 10 kts 125°
2026-04-20 03:17 -4.67743 55.52625 21 ft 9 kts 126°
2026-04-20 03:17 -4.67783 55.52680 21 ft 9 kts 124°
2026-04-20 03:17 -4.67818 55.52731 21 ft 8 kts 123°
2026-04-20 03:18 -4.67844 55.52771 21 ft 12 kts 123°
2026-04-20 03:18 -4.67882 55.52829 21 ft 5 kts 124°
2026-04-20 03:18 -4.67900 55.52855 21 ft 4 kts 124°
2026-04-20 03:18 -4.67913 55.52874 21 ft 3 kts 125°
2026-04-20 03:19 -4.67946 55.52919 21 ft 10 kts 126°
2026-04-20 03:19 -4.67986 55.52975 21 ft 9 kts 126°
2026-04-20 03:19 -4.68025 55.53031 22 ft 10 kts 124°
2026-04-20 03:19 -4.68076 55.53090 22 ft 9 kts 140°
2026-04-20 03:20 -4.68098 55.53110 22 ft 0 kts 123°
2026-04-20 03:20 -4.68094 55.53124 22 ft 5 kts 38°
2026-04-20 03:20 -4.68044 55.53075 22 ft 16 kts 295°
2026-04-20 03:20 -4.67999 55.52979 21 ft 14 kts 297°
2026-04-20 03:21 -4.67941 55.52893 21 ft 16 kts 307°
2026-04-20 03:21 -4.67868 55.52799 21 ft 17 kts 308°
2026-04-20 03:21 -4.67797 55.52703 21 ft 16 kts 306°
2026-04-20 03:21 -4.67731 55.52612 21 ft 15 kts 304°
2026-04-20 03:22 -4.67666 55.52518 21 ft 17 kts 303°
2026-04-20 03:22 -4.67593 55.52411 21 ft 22 kts 305°
2026-04-20 03:22 -4.67503 55.52287 22 ft 21 kts 304°
2026-04-20 03:22 -4.67416 55.52159 23 ft 21 kts 304°
2026-04-20 03:23 -4.67334 55.52042 23 ft 20 kts 305°
2026-04-20 03:23 -4.67256 55.51933 25 ft 17 kts 305°
2026-04-20 03:23 -4.67187 55.51826 26 ft 18 kts 302°
2026-04-20 03:23 -4.67112 55.51714 26 ft 19 kts 306°
2026-04-20 03:24 -4.67026 55.51612 27 ft 15 kts 313°
2026-04-20 03:24 -4.66963 55.51528 26 ft 14 kts 302°
2026-04-20 03:24 -4.66911 55.51445 27 ft 13 kts 301°
2026-04-20 03:24 -4.66927 55.51365 26 ft 12 kts 230°
2026-04-20 03:25 -4.66990 55.51311 27 ft 10 kts 226°
2026-04-20 03:25 -4.67030 55.51276 27 ft 5 kts 218°
2026-04-20 03:25 -4.67057 55.51256 27 ft 3 kts 216°
2026-04-20 03:25 -4.67067 55.51249 27 ft 0 kts 216°
2026-04-20 03:26 -4.67067 55.51248 27 ft 0 kts 216°